User: anonymous   Login
Location: Berduj
(43.0019°N, 22.3781°E)
Time: 17:27:27
(UTC+00:00)
Language:

Cosmos 1300 - Orbit

View from above orbital plane
View from above orbital plane
View from above satellite
View from above satellite

Ground track
Ground track

The orbit data is extracted from the following two-line orbital elements,

1 12785U 81082A   19341.17813705  .00000163  00000-0  64987-5 0  9991
2 12785  82.5043 259.9296 0001914  49.3675  67.1827 15.17567677 88760
Epoch (UTC): 07 December 2019 04:16:31
Eccentricity: 0.0001914
inclination: 82.5043°
perigee height: 512 km
apogee height: 514 km
right ascension of ascending node: 259.9296°
argument of perigee: 49.3675°
revolutions per day: 15.17567677
mean anomaly at epoch: 67.1827°
orbit number at epoch: 8876

The dashed part of the orbit path shows where the satellite is in the earth's shadow,  

DLR